RH
83 84 81 76 83 84 89 93 94 87 95 94 76 52 60 61 60 62 67 69 79 79 80 82 81 83 87 89 87 96 97 95 97
86 86 81 80 83 85 90 94 98 98 97 85 56 57 65 58 61 62 64 71 78 79 78 78 80 82 83 86 86 86 88 95 95
89 86 81 82 82 87 90 92 94 94 86 55 55 65 68 62 61 63 78 79 79 74 80 79 86 81 81 82 83 84 83 86 87
89 87 80 81 83 92 91 90 89 88 73 57 67 73 68 61 62 60 64 77 85 77 80 79 95 87 87 81 82 83 86 88 91
89 86 79 80 84 89 92 92 91 90 64 74 69 67 68 67 69 83 77 82 78 77 80 87 82 97 90 84 95 99 97 97 95
83 75 78 83 84 90 94 95 93 71 78 70 67 68 73 80 92 90 82 84 82 84 83 78 78 87 81 97 98 97 96 94 91
69 81 76 87 83 86 92 89 71 72 68 69 67 64 70 81 83 84 85 85 87 82 82 86 83 86 94 97 92 92 90 88 86
76 76 76 84 84 86 87 85 77 75 68 65 59 60 69 83 84 84 86 88 90 90 87 94 93 97 95 92 89 86 84 84 85
66 64 72 74 73 80 80 78 79 77 71 65 61 65 77 91 94 94 91 89 96 87 96 98 95 93 90 85 84 81 80 80 86
67 66 72 71 77 79 76 81 83 78 73 71 67 71 75 88 97 96 91 93 88 93 98 92 91 88 85 85 81 85 82 79 86
69 68 70 70 71 76 77 82 82 80 77 78 73 72 78 80 97 97 92 89 87 91 93 89 87 84 86 78 73 84 92 90 87
70 65 70 66 68 79 79 84 85 82 79 78 76 71 75 76 86 100 97 97 99 97 93 89 86 86 86 87 94 94 90 86 88
68 66 64 64 68 80 79 81 79 78 76 74 72 76 76 77 81 92 100 100 97 91 86 87 89 88 86 87 87 87 85 93 96
58 58 60 58 66 78 76 78 77 75 71 68 66 69 73 76 81 87 85 86 84 84 82 86 83 82 89 89 86 83 94 92 89
52 54 57 61 66 75 74 73 72 69 63 58 60 63 70 74 72 88 89 85 87 87 80 76 84 89 88 84 88 92 91 92 92
51 50 55 63 65 69 70 68 63 61 59 61 66 66 67 70 70 80 90 84 84 84 85 81 84 93 90 96 94 89 89 92 89
54 52 53 62 62 68 69 67 62 63 59 48 51 53 56 64 69 72 84 86 80 78 85 83 82 83 84 86 81 82 82 84 85
58 55 50 59 66 70 71 68 63 62 60 53 45 50 45 52 63 69 71 82 87 86 88 89 89 84 81 76 64 80 81 81 85
66 60 53 55 66 69 73 70 65 60 58 56 66 61 51 43 54 61 72 74 68 78 79 83 81 71 66 61 57 66 67 73 82
65 62 55 54 60 66 70 69 65 59 54 56 61 61 58 48 43 51 60 79 75 66 63 68 70 66 67 67 51 51 55 68 74
Wind_Speed
16 16 16 18 19 19 18 17 18 17 16 14 15 16 17 15 14 14 14 14 15 16 16 15 16 15 14 14 16 19 20 20 20
16 16 16 18 18 18 19 19 17 16 15 14 15 17 18 13 13 13 13 14 16 16 16 16 15 15 15 14 15 14 16 18 18
16 16 16 17 17 18 18 18 17 16 15 15 16 17 17 14 13 14 14 14 13 14 15 16 15 16 17 18 17 16 17 16 18
16 16 17 17 18 18 17 17 16 15 15 18 19 18 17 13 14 14 13 14 15 16 15 15 17 17 19 19 17 18 19 20 21
17 17 18 18 19 19 17 16 16 17 19 21 19 19 17 15 14 13 15 14 13 14 15 16 16 21 19 18 18 19 21 24 24
18 16 20 19 20 19 17 17 18 22 22 20 19 15 13 12 13 18 16 13 14 16 16 16 16 17 17 19 24 24 23 22 22
15 18 22 20 20 18 17 17 22 17 14 16 16 13 13 13 11 12 14 15 15 17 17 17 17 18 20 23 22 21 22 21 21
16 17 20 18 19 16 15 18 13 12 13 13 12 14 13 10 11 12 13 15 16 18 17 16 20 23 23 22 20 20 19 20 20
17 18 18 18 17 16 15 13 14 13 13 12 14 15 12 14 12 12 13 15 21 17 17 23 22 21 19 19 20 19 18 19 20
17 18 19 17 17 16 15 16 15 14 13 13 14 15 13 12 13 12 14 15 17 18 22 22 20 19 17 18 18 18 18 18 19
16 17 17 16 17 16 16 16 15 14 14 13 12 11 11 11 12 14 14 15 16 21 21 20 19 17 17 17 16 16 17 19 18
16 16 16 16 16 17 16 15 14 14 13 13 11 10 11 11 11 15 16 14 19 21 20 18 19 18 17 17 17 17 17 16 15
17 17 17 16 17 17 16 16 15 14 13 12 9 9 10 10 9 14 18 19 23 20 19 19 19 18 16 15 15 15 14 13 15
18 18 18 21 17 17 17 16 16 15 13 12 10 9 8 8 8 9 15 18 21 22 20 19 18 16 15 15 14 13 12 12 12
20 18 19 20 18 18 18 18 15 16 17 14 12 10 9 9 8 7 10 15 19 19 17 13 14 16 14 12 12 12 12 11 10
21 19 19 20 21 20 20 19 21 17 18 16 14 10 8 8 8 7 8 11 11 13 11 11 12 13 16 12 11 11 9 9 9
22 20 21 21 21 21 21 21 20 16 20 11 11 5 5 5 5 7 8 10 12 12 10 9 10 10 10 10 12 9 8 8 7
22 22 21 22 21 23 24 24 22 16 19 19 4 4 4 12 4 5 6 8 9 10 10 10 10 8 8 8 7 11 8 6 6
23 22 22 22 22 23 25 26 24 20 22 19 5 1 11 4 5 7 7 7 8 10 10 9 9 9 8 9 9 9 7 5 4
26 26 26 24 23 22 24 25 24 22 22 21 12 7 5 7 6 7 10 9 9 9 10 11 9 8 8 8 9 8 5 5 4
Wind_Direction
144 141 140 140 138 134 131 132 134 135 127 121 116 115 110 103 103 98 97 96 94 91 91 89 85 83 84 85 82 81 81 81 78
146 144 141 141 140 136 132 129 131 130 127 123 118 118 108 108 102 99 96 98 97 95 92 91 90 87 86 90 90 87 82 76 75
148 144 142 143 142 138 134 130 129 128 127 126 121 118 107 104 103 101 99 98 102 97 97 92 91 96 94 90 85 82 80 79 75
149 146 145 145 142 138 132 128 126 124 125 124 123 120 115 107 108 107 101 107 97 97 100 99 84 103 98 89 83 83 83 84 84
150 148 148 146 143 139 129 126 124 123 126 126 123 113 99 105 106 103 105 101 104 100 102 104 97 88 91 88 88 87 86 84 79
153 155 150 145 146 137 129 128 129 131 128 128 126 106 103 103 96 114 110 104 110 108 106 99 105 92 90 97 88 81 77 74 72
160 155 151 150 145 141 136 140 131 123 127 128 117 116 105 96 96 106 109 109 116 110 106 102 101 104 98 88 82 78 74 74 75
156 154 152 151 144 145 145 137 141 138 136 134 132 126 120 103 102 124 118 121 124 118 110 113 105 95 87 85 84 81 79 79 77
167 164 163 159 156 156 150 148 144 139 136 132 130 127 114 99 102 117 116 119 121 114 115 105 96 90 88 86 86 87 86 86 83
174 170 165 164 161 160 153 149 147 140 136 136 134 129 114 102 100 111 125 117 121 121 114 104 96 93 91 92 90 90 93 90 88
179 171 168 164 161 158 152 150 149 142 137 137 137 131 123 105 93 128 128 128 134 124 112 106 100 98 99 97 95 97 94 89 84
180 174 171 165 160 154 150 148 149 144 141 136 136 132 135 117 94 99 128 142 130 121 113 110 107 107 106 106 99 95 90 84 85
182 176 172 169 163 161 159 156 155 150 148 138 132 129 128 129 115 103 113 131 121 115 115 115 113 114 113 109 105 96 92 95 87
186 179 174 173 170 168 164 158 159 153 146 137 129 124 121 117 122 118 111 115 123 122 120 121 118 116 119 116 110 108 105 92 85
185 183 179 175 173 173 170 163 161 158 146 134 120 114 114 116 118 122 130 119 126 118 117 116 121 123 120 120 121 115 105 97 85
186 185 182 180 178 180 176 166 156 155 150 129 116 99 100 107 118 126 144 150 141 138 129 135 131 128 130 117 115 109 104 96 83
189 187 186 185 182 179 176 170 161 163 165 161 140 146 131 116 123 137 146 161 170 170 143 150 147 143 132 130 130 111 114 110 92
194 194 190 188 186 179 183 175 172 170 180 178 156 162 173 149 159 160 159 162 158 154 153 148 149 152 147 138 152 142 115 114 110
196 196 194 193 191 187 187 186 184 181 186 185 208 197 140 175 163 187 175 179 176 168 165 167 165 159 153 163 160 161 140 113 113
201 202 201 198 196 195 193 193 194 197 190 193 176 161 149 162 157 166 175 182 190 181 178 174 175 167 159 150 167 173 144 109 114